Location: Hamilton
(37.7830°S, 175.2830°E)
Time: 00:23:43
(UTC+12:00)

ARGOS - Pass Details

Date: 24 January 2019
Orbit: 819 x 835 km, 98.5° (Epoch: 22 April)

Event Time Altitude Azimuth Distance (km) Brightness Sun altitude
Rises 23:12:21 0° 175° (S) 3,388 7.1 -24.3°
Reaches altitude 10° 23:14:48 10° 180° (S) 2,447 6.3 -24.6°
Maximum altitude 23:19:56 45° 251° (WSW) 1,120 4.1 -25.2°
Enters shadow 23:23:31 19° 315° (NW) 1,885 4.9 -25.6°
